Location: Dreilärchen
(47.9312°N, 8.6113°E)
Time: 23:26:41
(UTC+00:00)

CZ-4C R/B - Pass Details

Date: 26 May 2022
Orbit: 581 x 1419 km, 63.4° (Epoch: 02 July)

Event Time Altitude Azimuth Distance (km) Brightness Sun altitude
Rises 00:14:17 0° 316° (NW) 3,858 6.1 -20.0°
Reaches altitude 10° 00:16:50 10° 311° (NW) 3,013 5.4 -19.9°
Maximum altitude 00:23:52 49° 240° (WSW) 1,599 3.3 -19.6°
Enters shadow 00:28:02 28° 183° (S) 2,285 3.8 -19.4°
